{"data":{"norad_id":66657,"intl_designator":"2025-274H","name":"SPIRONE","alt_names":[],"object_type":"PAYLOAD","status":"ACTIVE","operator":null,"country":"SKOR","launch_date":"2025-11-26","launch_site_code":"NSC","launch_vehicle":null,"mission":null,"orbit_class":"UNKNOWN","rcs_meters":null,"size_class":null,"mass_kg":null,"dimensions":null,"purposes":[],"wikipedia_slug":null,"has_3d_model":false,"image_url":null,"decayed_at":null,"tle_current":{"epoch":"2026-05-25T01:45:49.042656Z","epoch_age_seconds":68418,"freshness":"FRESH","line1":"1 66657U 25274H   26145.07348429  .00001931  00000+0  18886-3 0  9992","line2":"2 66657  97.7481  74.6973 0013776  90.9936 269.2862 14.93432707 26771","mean_motion":14.93432707,"eccentricity":0.0013776,"inclination_deg":97.7481,"raan_deg":74.6973,"arg_perigee_deg":90.9936,"mean_anomaly_deg":269.2862,"bstar":0.00018886,"rev_number":2677,"period_min":96.422155029179,"perigee_km":577.64622980067,"apogee_km":596.83724129285,"semimajor_km":6965.3787355468,"source":"CELESTRAK","updated_at":"2026-05-25T13:38:06.381640Z"}}}